sat.trackr.live / text

‹ back to catalog

STARLINK-33533

NORAD 63387 · 2025-063AA

PAYLOAD ACTIVE UNKNOWN

§ Identity

Operator
Country
US
Launch date
2025-03-26
Launch site
AFWTR
Launch vehicle
Mass (kg)
RCS (m²)

Purposes: comms

External: N2YO · Heavens-Above · Gunter

§ Orbital elements

Epoch: 2026-09-20T06:40:40.139904Z

Period
93.85 min
Inclination
53.1602°
Eccentricity
0.0001360
Mean motion
15.34387068 rev/d
Perigee alt
461.8 km
Apogee alt
463.7 km
Semi-major
6,840.9 km
B*
5.4051e-4
RAAN
222.8103°
Arg perigee
91.6139°
Mean anomaly
268.5019°
Rev number
8,458

§ Raw data

STARLINK-335331 63387U 25063AA  26263.27824236  .00017922  00000+0  54051-3 0  99942 63387  53.1602 222.8103 0001360  91.6139 268.5019 15.34387068 84584

JSON: /api/v1/satellites/63387 · /tle

For live sub-satellite position, see the globe view (requires WebGL).

§ Visibility from observer

Set your observer location to see the next 7 days of passes ≥ 10°. The values pass through the URL so the page stays shareable.

No JS? Fill the form by hand. The geolocation button needs JavaScript.